This demonstration page uses our WeatherBlox Daily Observations layout. Learn more.

Left ArrowRight Arrow

38.20091, -84.87328

Hourly Observations for July 6, 2015

Temp ( °F °C ) Dew Point ( °F °C ) Humidity (%) Winds ( mph kmh ) Pressure ( in mb ) Visibility ( mi km ) Precip ( " mm )
12:53 am 00:53 Clear 65 18.3 63 17.2 93 93 Calm 30.06 1018 7 11 0.00 0.00
1:53 am 01:53 Clear 66 18.9 63 17.2 90 90 Calm 30.04 1017 7 11 0.00 0.00
2:53 am 02:53 Clear with Mist and Fog 64 17.8 62 16.7 93 93 Calm 30.02 1017 5 8 0.00 0.00
3:21 am 03:21 Clear with Mist and Fog 65 18.3 62 16.7 90 90 Calm 30.06 1018 2 3 0.00 0.00
3:31 am 03:31 Mostly Clear with Mist and Fog 64 17.8 62 16.7 93 93 Calm 30.06 1018 2 3 0.00 0.00
3:42 am 03:42 Mostly Clear with Mist and Fog 63 17.2 61 16.1 93 93 Calm 30.06 1018 5 8 0.00 0.00
3:53 am 03:53 Clear with Mist and Fog 63 17.2 61 16.1 93 93 Calm 30.03 1017 5 8 0.00 0.00
4:15 am 04:15 Partly Cloudy with Mist and Fog 62 16.7 60 15.6 93 93 Calm 30.06 1018 3 4 0.00 0.00
4:19 am 04:19 Mostly Cloudy with Mist and Fog 62 16.7 60 15.6 93 93 Calm 30.06 1018 1 2 0.00 0.00
4:26 am 04:26 Mostly Cloudy with Fog 62 16.7 60 15.6 93 93 Calm 30.06 1018 1 1 0.00 0.00
4:32 am 04:32 Mostly Cloudy with Mist and Fog 61 16.1 60 15.6 97 97 Calm 30.06 1018 1 2 0.00 0.00
4:35 am 04:35 Mostly Cloudy with Mist and Fog 62 16.7 60 15.6 93 93 Calm 30.06 1018 2 3 0.00 0.00
4:42 am 04:42 Mostly Cloudy with Mist and Fog 62 16.7 60 15.6 93 93 Calm 30.06 1018 3 5 0.00 0.00
4:53 am 04:53 Partly Cloudy with Mist and Fog 61 16.1 59 15 93 93 Calm 30.04 1017 4 6 0.00 0.00
5:19 am 05:19 Mostly Cloudy with Mist and Fog 62 16.7 60 15.6 93 93 Calm 30.06 1018 6 10 0.00 0.00
5:31 am 05:31 Mostly Cloudy with Mist and Fog 61 16.1 59 15 93 93 Calm 30.09 1019 2 3 0.00 0.00
5:36 am 05:36 Mostly Cloudy with Mist and Fog 62 16.7 59 15 90 90 Calm 30.09 1019 3 5 0.00 0.00
5:53 am 05:53 Partly Cloudy with Mist and Fog 62 16.7 59 15 90 90 Calm 30.07 1018 3 5 0.00 0.00
6:53 am 06:53 Sunny with Mist and Fog 62 16.7 60 15.6 93 93 Calm 30.08 1019 3 5 0.00 0.00
7:53 am 07:53 Sunny with Mist and Fog 64 17.8 62 16.7 93 93 Calm 30.09 1019 3 5 0.00 0.00
8:53 am 08:53 Sunny with Mist and Fog 70 21.1 66 18.9 87 87 Calm 30.10 1019 4 6 0.00 0.00
9:53 am 09:53 Sunny 74 23.3 67 19.4 79 79 VRB 3 6 30.10 1019 7 11 0.00 0.00
10:53 am 10:53 Sunny 77 25 65 18.3 66 66 Calm 30.09 1019 8 13 0.00 0.00
11:53 am 11:53 Sunny 79 26.1 65 18.3 62 62 S 5 7 30.08 1019 8 13 0.00 0.00
12:53 pm 12:53 Sunny 81 27.2 64 17.8 57 57 SW 5 7 30.08 1019 8 13 0.00 0.00
1:53 pm 13:53 Mostly Cloudy 81 27.2 67 19.4 62 62 WSW 8 13 30.07 1018 7 11 0.00 0.00
2:53 pm 14:53 Mostly Cloudy with Haze 82 27.8 68 20 63 63 SW 9 15 30.06 1018 6 10 0.00 0.00
3:53 pm 15:53 Sunny 84 28.9 66 18.9 55 55 SW 9 15 30.04 1017 7 11 0.00 0.00
4:53 pm 16:53 Sunny 84 28.9 65 18.3 53 53 SW 9 15 30.02 1017 7 11 0.00 0.00
5:53 pm 17:53 Sunny 84 28.9 66 18.9 55 55 SW 10 17 30.01 1016 7 11 0.00 0.00
6:53 pm 18:53 Hazy 83 28.3 67 19.4 59 59 SSW 7 11 29.99 1016 6 10 0.00 0.00
7:53 pm 19:53 Mostly Sunny 81 27.2 68 20 65 65 SSW 9 15 29.99 1016 8 13 0.00 0.00
8:53 pm 20:53 Sunny 79 26.1 68 20 69 69 S 8 13 29.98 1015 9 14 0.00 0.00
9:53 pm 21:53 Clear 77 25 68 20 74 74 S 5 7 29.99 1016 10 16 0.00 0.00
10:53 pm 22:53 Clear 74 23.3 68 20 82 82 SW 3 6 30.02 1017 9 14 0.00 0.00
11:53 pm 23:53 Clear 74 23.3 68 20 82 82 S 5 7 30.02 1017 10 16 0.00 0.00

Powered by AerisWeather